| time (UTC) | temp F | wind direction | speed MPH | gust MPH | rain 1hr in | rain 24hr in | rain mn in | humidity % | barometer mb |
| 20260506005531 | 71 | 207 | 3.0 | 9.0 | 0.00 | 0.00 | 0.00 | 62 | 1014.6 |
| 20260506005025 | 71 | 204 | 3.0 | 9.0 | 0.00 | 0.00 | 0.00 | 61 | 1014.6 |
| 20260506004519 | 71 | 200 | 3.0 | 8.0 | 0.00 | 0.00 | 0.00 | 61 | 1014.6 |
| 20260506004026 | 71 | 178 | 3.0 | 10.0 | 0.00 | 0.00 | 0.00 | 61 | 1014.6 |
| 20260506003507 | 71 | 68 | 3.0 | 11.0 | 0.00 | 0.00 | 0.00 | 61 | 1014.5 |
| 20260506003001 | 72 | 152 | 3.0 | 11.0 | 0.00 | 0.00 | 0.00 | 60 | 1014.4 |
| 20260506002455 | 72 | 214 | 3.0 | 11.0 | 0.00 | 0.00 | 0.00 | 60 | 1014.4 |
| 20260506001949 | 72 | 206 | 3.0 | 10.0 | 0.00 | 0.00 | 0.00 | 60 | 1014.4 |
| 20260506001714 | 72 | 175 | 4.0 | 13.0 | 0.00 | 0.00 | 0.00 | 59 | 1014.3 |
| 20260506000937 | 73 | 195 | 4.0 | 13.0 | 0.00 | 0.00 | 0.00 | 59 | 1014.3 |
| 20260506000431 | 73 | 206 | 3.0 | 11.0 | 0.00 | 0.00 | 0.00 | 59 | 1014.2 |
| 20260505235925 | 73 | 279 | 3.0 | 9.0 | 0.00 | 0.00 | 0.00 | 59 | 1014.0 |
| 20260505235419 | 73 | 175 | 3.0 | 6.0 | 0.00 | 0.00 | 0.00 | 59 | 1013.9 |
| 20260505235144 | 73 | 215 | 3.0 | 9.0 | 0.00 | 0.00 | 0.00 | 58 | 1013.8 |
| 20260505234407 | 74 | 211 | 4.0 | 11.0 | 0.00 | 0.00 | 0.00 | 58 | 1013.9 |
| 20260505234132 | 74 | 204 | 3.0 | 11.0 | 0.00 | 0.00 | 0.00 | 58 | 1013.8 |
| 20260505233354 | 74 | 205 | 3.0 | 9.0 | 0.00 | 0.00 | 0.00 | 58 | 1013.8 |
| 20260505232849 | 74 | 203 | 2.0 | 9.0 | 0.00 | 0.00 | 0.00 | 57 | 1013.7 |
| 20260505232343 | 74 | 209 | 2.0 | 5.0 | 0.00 | 0.00 | 0.00 | 57 | 1013.9 |
| 20260505232108 | 75 | 217 | 2.0 | 11.0 | 0.00 | 0.00 | 0.00 | 57 | 1014.0 |
| 20260505231331 | 75 | 194 | 3.0 | 11.0 | 0.00 | 0.00 | 0.00 | 57 | 1013.7 |
| 20260505231056 | 75 | 218 | 4.0 | 15.0 | 0.00 | 0.00 | 0.00 | 56 | 1013.7 |
| 20260505230319 | 75 | 170 | 3.0 | 15.0 | 0.00 | 0.00 | 0.00 | 56 | 1013.7 |
| 20260505225813 | 75 | 194 | 3.0 | 10.0 | 0.00 | 0.00 | 0.00 | 56 | 1013.6 |
| 20260505225307 | 76 | 169 | 4.0 | 10.0 | 0.00 | 0.00 | 0.00 | 55 | 1013.6 |
| 20260505224801 | 76 | 209 | 3.0 | 8.0 | 0.00 | 0.00 | 0.00 | 55 | 1013.6 |
| 20260505224254 | 76 | 200 | 2.0 | 7.0 | 0.00 | 0.00 | 0.00 | 55 | 1013.6 |
| 20260505223749 | 76 | 221 | 3.0 | 7.0 | 0.00 | 0.00 | 0.00 | 54 | 1013.6 |
| 20260505223243 | 76 | 223 | 3.0 | 7.0 | 0.00 | 0.00 | 0.00 | 54 | 1013.5 |
| 20260505222737 | 77 | 136 | 4.0 | 11.0 | 0.00 | 0.00 | 0.00 | 53 | 1013.5 |
| 20260505222231 | 77 | 228 | 4.0 | 12.0 | 0.00 | 0.00 | 0.00 | 52 | 1013.5 |
| 20260505221725 | 78 | 192 | 3.0 | 12.0 | 0.00 | 0.00 | 0.00 | 51 | 1013.6 |
| 20260505221219 | 78 | 209 | 3.0 | 14.0 | 0.00 | 0.00 | 0.00 | 51 | 1013.5 |
| 20260505220713 | 78 | 226 | 4.0 | 14.0 | 0.00 | 0.00 | 0.00 | 50 | 1013.5 |
| 20260505220206 | 78 | 200 | 4.0 | 11.0 | 0.00 | 0.00 | 0.00 | 49 | 1013.4 |
| 20260505215931 | 78 | 222 | 5.0 | 9.0 | 0.00 | 0.00 | 0.00 | 48 | 1013.5 |
| 20260505215426 | 78 | 217 | 4.0 | 10.0 | 0.00 | 0.00 | 0.00 | 48 | 1013.5 |
| 20260505214649 | 79 | 192 | 4.0 | 9.0 | 0.00 | 0.00 | 0.00 | 47 | 1013.4 |
| 20260505214143 | 79 | 243 | 4.0 | 10.0 | 0.00 | 0.00 | 0.00 | 46 | 1013.3 |
| 20260505213637 | 79 | 207 | 4.0 | 11.0 | 0.00 | 0.00 | 0.00 | 45 | 1013.3 |
| 20260505213131 | 80 | 207 | 3.0 | 11.0 | 0.00 | 0.00 | 0.00 | 45 | 1013.3 |
| 20260505212856 | 80 | 213 | 3.0 | 10.0 | 0.00 | 0.00 | 0.00 | 44 | 1013.3 |
| 20260505212119 | 80 | 189 | 4.0 | 11.0 | 0.00 | 0.00 | 0.00 | 44 | 1013.2 |
| 20260505211613 | 80 | 167 | 4.0 | 14.0 | 0.00 | 0.00 | 0.00 | 44 | 1013.2 |
| 20260505211107 | 80 | 225 | 3.0 | 14.0 | 0.00 | 0.00 | 0.00 | 44 | 1013.2 |
| 20260505210614 | 80 | 207 | 4.0 | 8.0 | 0.00 | 0.00 | 0.00 | 43 | 1013.3 |
| 20260505210058 | 80 | 232 | 4.0 | 13.0 | 0.00 | 0.00 | 0.00 | 44 | 1013.2 |
| 20260505205548 | 80 | 195 | 4.0 | 13.0 | 0.00 | 0.00 | 0.00 | 43 | 1013.2 |
| 20260505205043 | 80 | 205 | 4.0 | 12.0 | 0.00 | 0.00 | 0.00 | 43 | 1013.2 |
| 20260505204537 | 80 | 228 | 4.0 | 10.0 | 0.00 | 0.00 | 0.00 | 43 | 1013.2 |
| 20260505204031 | 81 | 206 | 4.0 | 9.0 | 0.00 | 0.00 | 0.00 | 43 | 1013.1 |
| 20260505203524 | 81 | 180 | 4.0 | 15.0 | 0.00 | 0.00 | 0.00 | 42 | 1013.1 |
| 20260505203019 | 81 | 195 | 3.0 | 15.0 | 0.00 | 0.00 | 0.00 | 43 | 1013.2 |
| 20260505202513 | 81 | 232 | 3.0 | 11.0 | 0.00 | 0.00 | 0.00 | 42 | 1013.4 |
| 20260505202007 | 81 | 195 | 3.0 | 11.0 | 0.00 | 0.00 | 0.00 | 41 | 1013.5 |
| 20260505201501 | 81 | 209 | 2.0 | 6.0 | 0.00 | 0.00 | 0.00 | 39 | 1013.5 |
| 20260505200955 | 81 | 267 | 3.0 | 9.0 | 0.00 | 0.00 | 0.00 | 39 | 1013.6 |
| 20260505200449 | 81 | 210 | 3.0 | 9.0 | 0.00 | 0.00 | 0.00 | 40 | 1013.7 |
| 20260505195947 | 81 | 238 | 3.0 | 8.0 | 0.00 | 0.00 | 0.00 | 38 | 1013.8 |
| 20260505195433 | 81 | 229 | 3.0 | 7.0 | 0.00 | 0.00 | 0.00 | 39 | 1013.9 |
| 20260505195158 | 81 | 187 | 4.0 | 13.0 | 0.00 | 0.00 | 0.00 | 39 | 1013.9 |
| 20260505194524 | 81 | 219 | 4.0 | 13.0 | 0.00 | 0.00 | 0.00 | 40 | 1013.9 |
| 20260505193409 | 81 | 172 | 4.0 | 14.0 | 0.00 | 0.00 | 0.00 | 39 | 1014.3 |
| 20260505192903 | 81 | 194 | 3.0 | 9.0 | 0.00 | 0.00 | 0.00 | 41 | 1014.3 |
| 20260505192357 | 81 | 216 | 3.0 | 8.0 | 0.00 | 0.00 | 0.00 | 39 | 1014.4 |
| 20260505191851 | 81 | 206 | 3.0 | 8.0 | 0.00 | 0.00 | 0.00 | 39 | 1014.4 |
| 20260505191345 | 81 | 163 | 2.0 | 8.0 | 0.00 | 0.00 | 0.00 | 39 | 1014.5 |
| 20260505190839 | 82 | 215 | 2.0 | 7.0 | 0.00 | 0.00 | 0.00 | 39 | 1014.4 |
| 20260505190333 | 82 | 213 | 2.0 | 9.0 | 0.00 | 0.00 | 0.00 | 39 | 1014.5 |
| 20260505185827 | 81 | 205 | 2.0 | 9.0 | 0.00 | 0.00 | 0.00 | 36 | 1014.5 |
| 20260505185321 | 82 | 212 | 2.0 | 5.0 | 0.00 | 0.00 | 0.00 | 37 | 1014.6 |
| 20260505184815 | 81 | 218 | 3.0 | 7.0 | 0.00 | 0.00 | 0.00 | 38 | 1014.7 |
| 20260505184308 | 81 | 189 | 4.0 | 7.0 | 0.00 | 0.00 | 0.00 | 38 | 1014.7 |
| 20260505184034 | 81 | 185 | 3.0 | 10.0 | 0.00 | 0.00 | 0.00 | 36 | 1014.7 |
| 20260505183257 | 81 | 212 | 3.0 | 10.0 | 0.00 | 0.00 | 0.00 | 37 | 1014.7 |
| 20260505182751 | 81 | 254 | 3.0 | 9.0 | 0.00 | 0.00 | 0.00 | 38 | 1014.7 |
| 20260505182245 | 82 | 141 | 2.0 | 6.0 | 0.00 | 0.00 | 0.00 | 39 | 1014.8 |
| 20260505182010 | 81 | 208 | 3.0 | 7.0 | 0.00 | 0.00 | 0.00 | 38 | 1014.8 |
| 20260505181233 | 81 | 239 | 3.0 | 7.0 | 0.00 | 0.00 | 0.00 | 39 | 1015.0 |
| 20260505180727 | 81 | 229 | 3.0 | 7.0 | 0.00 | 0.00 | 0.00 | 39 | 1014.9 |
| 20260505180221 | 80 | 232 | 2.0 | 7.0 | 0.00 | 0.00 | 0.00 | 40 | 1014.8 |
| 20260505175715 | 81 | 281 | 3.0 | 8.0 | 0.00 | 0.00 | 0.00 | 39 | 1014.9 |
| 20260505175209 | 81 | 209 | 3.0 | 8.0 | 0.00 | 0.00 | 0.00 | 38 | 1014.9 |
| 20260505174703 | 81 | 167 | 3.0 | 12.0 | 0.00 | 0.00 | 0.00 | 42 | 1014.9 |
| 20260505174428 | 80 | 220 | 3.0 | 12.0 | 0.00 | 0.00 | 0.00 | 41 | 1015.0 |
| 20260505173650 | 80 | 211 | 3.0 | 9.0 | 0.00 | 0.00 | 0.00 | 42 | 1015.0 |
| 20260505173145 | 80 | 214 | 3.0 | 7.0 | 0.00 | 0.00 | 0.00 | 43 | 1014.9 |
| 20260505172639 | 80 | 178 | 3.0 | 7.0 | 0.00 | 0.00 | 0.00 | 40 | 1015.1 |
| 20260505172133 | 81 | 208 | 3.0 | 12.0 | 0.00 | 0.00 | 0.00 | 41 | 1015.2 |
| 20260505171857 | 80 | 219 | 3.0 | 12.0 | 0.00 | 0.00 | 0.00 | 42 | 1015.3 |
| 20260505171121 | 80 | 256 | 2.0 | 6.0 | 0.00 | 0.00 | 0.00 | 42 | 1015.3 |
| 20260505170615 | 80 | 231 | 3.0 | 10.0 | 0.00 | 0.00 | 0.00 | 43 | 1015.3 |
| 20260505170113 | 80 | 185 | 3.0 | 10.0 | 0.00 | 0.00 | 0.00 | 43 | 1015.4 |
| 20260505165603 | 79 | 209 | 4.0 | 7.0 | 0.00 | 0.00 | 0.00 | 44 | 1015.6 |
| 20260505165056 | 79 | 178 | 3.0 | 9.0 | 0.00 | 0.00 | 0.00 | 44 | 1015.6 |
| 20260505164822 | 79 | 209 | 2.0 | 8.0 | 0.00 | 0.00 | 0.00 | 44 | 1015.5 |
| 20260505164045 | 79 | 208 | 2.0 | 8.0 | 0.00 | 0.00 | 0.00 | 42 | 1015.6 |
| 20260505163539 | 79 | 225 | 2.0 | 5.0 | 0.00 | 0.00 | 0.00 | 45 | 1015.6 |
| 20260505163304 | 78 | 163 | 3.0 | 9.0 | 0.00 | 0.00 | 0.00 | 46 | 1015.7 |
| 20260505162530 | 78 | 178 | 3.0 | 8.0 | 0.00 | 0.00 | 0.00 | 44 | 1015.7 |
| 20260505162523 | 78 | 209 | 2.0 | 6.0 | 0.00 | 0.00 | 0.00 | 45 | 1015.7 |
| 20260505161746 | 78 | 240 | 2.0 | 6.0 | 0.00 | 0.00 | 0.00 | 46 | 1015.8 |
| 20260505161009 | 78 | 196 | 2.0 | 10.0 | 0.00 | 0.00 | 0.00 | 47 | 1015.8 |
| 20260505160503 | 79 | 126 | 2.0 | 10.0 | 0.00 | 0.00 | 0.00 | 48 | 1015.9 |
| 20260505152921 | 76 | 246 | 2.0 | 9.0 | 0.00 | 0.00 | 0.00 | 49 | 1016.0 |
| 20260505152646 | 76 | 218 | 2.0 | 9.0 | 0.00 | 0.00 | 0.00 | 50 | 1016.0 |
| 20260505151909 | 76 | 214 | 2.0 | 5.0 | 0.00 | 0.00 | 0.00 | 49 | 1016.1 |
| 20260505151403 | 76 | 220 | 2.0 | 6.0 | 0.00 | 0.00 | 0.00 | 50 | 1016.0 |
| 20260505150857 | 75 | 215 | 2.0 | 6.0 | 0.00 | 0.00 | 0.00 | 49 | 1016.0 |
| 20260505150351 | 75 | 242 | 3.0 | 6.0 | 0.00 | 0.00 | 0.00 | 53 | 1016.2 |
| 20260505130127 | 67 | 185 | 2.0 | 5.0 | 0.00 | 0.00 | 0.00 | 61 | 1016.6 |
| 20260505124609 | 66 | 190 | 1.0 | 4.0 | 0.00 | 0.00 | 0.00 | 62 | 1016.5 |
| 20260505124103 | 66 | 227 | 1.0 | 5.0 | 0.00 | 0.00 | 0.00 | 62 | 1016.4 |
| 20260505123827 | 65 | 210 | 1.0 | 5.0 | 0.00 | 0.00 | 0.00 | 63 | 1016.5 |
| 20260505123051 | 65 | 207 | 2.0 | 6.0 | 0.00 | 0.00 | 0.00 | 63 | 1016.5 |
| 20260505122545 | 65 | 202 | 2.0 | 6.0 | 0.00 | 0.00 | 0.00 | 63 | 1016.5 |
| 20260505122038 | 64 | 213 | 2.0 | 5.0 | 0.00 | 0.00 | 0.00 | 63 | 1016.5 |
| 20260505121804 | 64 | 224 | 1.0 | 5.0 | 0.00 | 0.00 | 0.00 | 64 | 1016.5 |
| 20260505121027 | 63 | 204 | 2.0 | 5.0 | 0.00 | 0.00 | 0.00 | 64 | 1016.4 |
| 20260505120520 | 63 | 226 | 2.0 | 5.0 | 0.00 | 0.00 | 0.00 | 64 | 1016.4 |
| 20260505120015 | 63 | 229 | 2.0 | 8.0 | 0.00 | 0.00 | 0.00 | 65 | 1016.4 |
| 20260505115510 | 62 | 198 | 2.0 | 8.0 | 0.00 | 0.00 | 0.00 | 65 | 1016.3 |
| 20260505115504 | 62 | 222 | 2.0 | 6.0 | 0.00 | 0.00 | 0.00 | 66 | 1016.4 |
| 20260505114457 | 62 | 202 | 2.0 | 6.0 | 0.00 | 0.00 | 0.00 | 66 | 1016.4 |
| 20260505113950 | 61 | 176 | 1.0 | 4.0 | 0.00 | 0.00 | 0.00 | 67 | 1016.4 |
| 20260505113716 | 61 | 234 | 1.0 | 4.0 | 0.00 | 0.00 | 0.00 | 68 | 1016.2 |
| 20260505112939 | 60 | 220 | 0.0 | 2.0 | 0.00 | 0.00 | 0.00 | 68 | 1016.2 |
| 20260505112432 | 60 | 229 | 1.0 | 2.0 | 0.00 | 0.00 | 0.00 | 68 | 1016.2 |
| 20260505112030 | 60 | 219 | 1.0 | 5.0 | 0.00 | 0.00 | 0.00 | 68 | 1016.1 |
| 20260505110915 | 60 | 248 | 0.0 | 5.0 | 0.00 | 0.00 | 0.00 | 69 | 1016.1 |
| 20260505110409 | 60 | 207 | 1.0 | 3.0 | 0.00 | 0.00 | 0.00 | 69 | 1016.0 |
| 20260505110134 | 59 | 210 | 1.0 | 5.0 | 0.00 | 0.00 | 0.00 | 69 | 1015.9 |
| 20260505101814 | 59 | 200 | 0.0 | 2.0 | 0.00 | 0.00 | 0.00 | 70 | 1015.6 |
| 20260505101309 | 59 | 199 | 0.0 | 2.0 | 0.00 | 0.00 | 0.00 | 70 | 1015.5 |
| 20260505100803 | 59 | 217 | 0.0 | 0.0 | 0.00 | 0.00 | 0.00 | 70 | 1015.5 |
| 20260505100256 | 59 | 211 | 0.0 | 2.0 | 0.00 | 0.00 | 0.00 | 69 | 1015.4 |
| 20260505100022 | 59 | 215 | 0.0 | 2.0 | 0.00 | 0.00 | 0.00 | 69 | 1015.3 |
| 20260505095245 | 59 | 200 | 0.0 | 2.0 | 0.00 | 0.00 | 0.00 | 69 | 1015.3 |
| 20260505094739 | 59 | 203 | 0.0 | 2.0 | 0.00 | 0.00 | 0.00 | 69 | 1015.3 |
| 20260505094233 | 59 | 207 | 0.0 | 2.0 | 0.00 | 0.00 | 0.00 | 69 | 1015.2 |
| 20260505093727 | 59 | 204 | 0.0 | 3.0 | 0.00 | 0.00 | 0.00 | 69 | 1015.1 |
| 20260505093452 | 59 | 204 | 0.0 | 3.0 | 0.00 | 0.00 | 0.00 | 69 | 1015.1 |
| 20260505092715 | 59 | 184 | 0.0 | 2.0 | 0.00 | 0.00 | 0.00 | 69 | 1015.1 |
| 20260505092212 | 59 | 236 | 0.0 | 2.0 | 0.00 | 0.00 | 0.00 | 69 | 1015.1 |
| 20260505092205 | 59 | 211 | 0.0 | 3.0 | 0.00 | 0.00 | 0.00 | 69 | 1015.1 |
| 20260505091156 | 60 | 202 | 0.0 | 3.0 | 0.00 | 0.00 | 0.00 | 68 | 1015.0 |
| 20260505090651 | 60 | 192 | 0.0 | 2.0 | 0.00 | 0.00 | 0.00 | 68 | 1015.0 |
| 20260505090416 | 60 | 207 | 0.0 | 2.0 | 0.00 | 0.00 | 0.00 | 68 | 1014.9 |
| 20260505085639 | 60 | 195 | 0.0 | 1.0 | 0.00 | 0.00 | 0.00 | 68 | 1014.8 |
| 20260505085133 | 60 | 215 | 0.0 | 1.0 | 0.00 | 0.00 | 0.00 | 68 | 1014.9 |
| 20260505084627 | 60 | 216 | 0.0 | 1.0 | 0.00 | 0.00 | 0.00 | 67 | 1014.9 |
| 20260505084121 | 60 | 224 | 0.0 | 0.0 | 0.00 | 0.00 | 0.00 | 68 | 1014.9 |
| 20260505083615 | 60 | 205 | 0.0 | 1.0 | 0.00 | 0.00 | 0.00 | 67 | 1014.9 |
| 20260505083109 | 60 | 205 | 0.0 | 5.0 | 0.00 | 0.00 | 0.00 | 67 | 1014.9 |
| 20260505082603 | 60 | 205 | 0.0 | 5.0 | 0.00 | 0.00 | 0.00 | 67 | 1014.9 |
| 20260505082057 | 60 | 207 | 0.0 | 1.0 | 0.00 | 0.00 | 0.00 | 67 | 1014.9 |
| 20260505081551 | 60 | 192 | 0.0 | 2.0 | 0.00 | 0.00 | 0.00 | 66 | 1014.9 |
| 20260505081044 | 60 | 200 | 0.0 | 2.0 | 0.00 | 0.00 | 0.00 | 66 | 1014.9 |
| 20260505080539 | 61 | 200 | 0.0 | 1.0 | 0.00 | 0.00 | 0.00 | 66 | 1014.8 |
| 20260505080033 | 61 | 215 | 0.0 | 2.0 | 0.00 | 0.00 | 0.00 | 66 | 1014.8 |
| 20260505075527 | 61 | 203 | 0.0 | 2.0 | 0.00 | 0.00 | 0.00 | 66 | 1014.8 |
| 20260505075021 | 61 | 174 | 0.0 | 1.0 | 0.00 | 0.00 | 0.00 | 66 | 1014.7 |
| 20260505074515 | 61 | 192 | 0.0 | 0.0 | 0.00 | 0.00 | 0.00 | 66 | 1014.7 |
| 20260505074009 | 61 | 217 | 0.0 | 0.0 | 0.00 | 0.00 | 0.00 | 65 | 1014.7 |
| 20260505073502 | 61 | 212 | 0.0 | 2.0 | 0.00 | 0.00 | 0.00 | 65 | 1014.6 |
| 20260505072957 | 61 | 213 | 0.0 | 2.0 | 0.00 | 0.00 | 0.00 | 65 | 1014.6 |
| 20260505072722 | 62 | 218 | 0.0 | 3.0 | 0.00 | 0.00 | 0.00 | 65 | 1014.5 |
| 20260505072216 | 62 | 209 | 1.0 | 3.0 | 0.00 | 0.00 | 0.00 | 65 | 1014.5 |
| 20260505071439 | 62 | 192 | 1.0 | 3.0 | 0.00 | 0.00 | 0.00 | 64 | 1014.5 |
| 20260505070933 | 62 | 214 | 0.0 | 3.0 | 0.00 | 0.00 | 0.00 | 64 | 1014.5 |
| 20260505070427 | 62 | 214 | 0.0 | 3.0 | 0.00 | 0.00 | 0.00 | 64 | 1014.4 |
| 20260505070156 | 62 | 203 | 0.0 | 3.0 | 0.00 | 0.00 | 0.00 | 64 | 1014.4 |
| 20260505065411 | 62 | 208 | 0.0 | 3.0 | 0.00 | 0.00 | 0.00 | 64 | 1014.4 |
| 20260505064905 | 62 | 225 | 0.0 | 2.0 | 0.00 | 0.00 | 0.00 | 63 | 1014.5 |
| 20260505064359 | 62 | 212 | 1.0 | 3.0 | 0.00 | 0.00 | 0.00 | 63 | 1014.5 |
| 20260505063853 | 62 | 197 | 1.0 | 3.0 | 0.00 | 0.00 | 0.00 | 63 | 1014.5 |
| 20260505063347 | 63 | 202 | 1.0 | 3.0 | 0.00 | 0.00 | 0.00 | 62 | 1014.6 |
| 20260505062841 | 63 | 178 | 1.0 | 3.0 | 0.00 | 0.00 | 0.00 | 62 | 1014.6 |
| 20260505062335 | 63 | 210 | 0.0 | 3.0 | 0.00 | 0.00 | 0.00 | 62 | 1014.7 |
| 20260505061829 | 63 | 200 | 1.0 | 3.0 | 0.00 | 0.00 | 0.00 | 62 | 1014.6 |
| 20260505061323 | 63 | 211 | 1.0 | 3.0 | 0.00 | 0.00 | 0.00 | 62 | 1014.6 |
| 20260505060817 | 63 | 220 | 1.0 | 3.0 | 0.00 | 0.00 | 0.00 | 62 | 1014.6 |
| 20260505060311 | 63 | 245 | 1.0 | 3.0 | 0.00 | 0.00 | 0.00 | 61 | 1014.5 |
| 20260505055804 | 63 | 215 | 1.0 | 4.0 | 0.00 | 0.00 | 0.00 | 61 | 1014.6 |
| 20260505055259 | 63 | 217 | 1.0 | 4.0 | 0.00 | 0.00 | 0.00 | 61 | 1014.6 |
| 20260505054753 | 64 | 207 | 2.0 | 5.0 | 0.00 | 0.00 | 0.00 | 61 | 1014.7 |
| 20260505054519 | 64 | 200 | 1.0 | 5.0 | 0.00 | 0.00 | 0.00 | 61 | 1014.7 |
| 20260505054012 | 64 | 222 | 1.0 | 5.0 | 0.00 | 0.00 | 0.00 | 61 | 1014.7 |
| 20260505053235 | 64 | 231 | 2.0 | 5.0 | 0.00 | 0.00 | 0.00 | 61 | 1014.7 |
| 20260505053000 | 64 | 212 | 2.0 | 4.0 | 0.00 | 0.00 | 0.00 | 61 | 1014.7 |
| 20260505052222 | 64 | 223 | 2.0 | 7.0 | 0.00 | 0.00 | 0.00 | 61 | 1014.7 |
| 20260505051717 | 64 | 223 | 1.0 | 6.0 | 0.00 | 0.00 | 0.00 | 61 | 1014.7 |
| 20260505051224 | 64 | 234 | 1.0 | 3.0 | 0.00 | 0.00 | 0.00 | 61 | 1014.8 |
| 20260505050704 | 64 | 210 | 1.0 | 5.0 | 0.00 | 0.00 | 0.00 | 60 | 1014.8 |
| 20260505050159 | 64 | 223 | 1.0 | 5.0 | 0.00 | 0.00 | 0.00 | 60 | 1015.0 |
| 20260505041605 | 65 | 215 | 1.0 | 4.0 | 0.00 | 0.00 | 0.00 | 61 | 1014.9 |
| 20260505041059 | 65 | 209 | 1.0 | 5.0 | 0.00 | 0.00 | 0.00 | 61 | 1014.8 |
| 20260505040553 | 65 | 185 | 1.0 | 4.0 | 0.00 | 0.00 | 0.00 | 61 | 1014.7 |
| 20260505040330 | 65 | 220 | 1.0 | 4.0 | 0.00 | 0.00 | 0.00 | 61 | 1014.7 |
| 20260505035541 | 65 | 211 | 1.0 | 4.0 | 0.00 | 0.00 | 0.00 | 60 | 1014.7 |
| 20260505035035 | 65 | 203 | 1.0 | 4.0 | 0.00 | 0.00 | 0.00 | 60 | 1014.7 |
| 20260505034528 | 65 | 210 | 2.0 | 4.0 | 0.00 | 0.00 | 0.00 | 60 | 1014.7 |
| 20260505034023 | 65 | 213 | 2.0 | 4.0 | 0.00 | 0.00 | 0.00 | 60 | 1014.6 |
| 20260505033517 | 65 | 191 | 1.0 | 4.0 | 0.00 | 0.00 | 0.00 | 60 | 1014.6 |
| 20260505033011 | 65 | 184 | 2.0 | 5.0 | 0.00 | 0.00 | 0.00 | 60 | 1014.6 |
| 20260505032505 | 65 | 215 | 2.0 | 8.0 | 0.00 | 0.00 | 0.00 | 60 | 1014.6 |
| 20260505031959 | 65 | 223 | 2.0 | 8.0 | 0.00 | 0.00 | 0.00 | 60 | 1014.6 |
| 20260505031453 | 65 | 217 | 2.0 | 4.0 | 0.00 | 0.00 | 0.00 | 60 | 1014.5 |
| 20260505030947 | 66 | 213 | 2.0 | 5.0 | 0.00 | 0.00 | 0.00 | 60 | 1014.5 |
| 20260505030444 | 66 | 217 | 2.0 | 5.0 | 0.00 | 0.00 | 0.00 | 60 | 1014.5 |
| 20260505030438 | 66 | 222 | 2.0 | 5.0 | 0.00 | 0.00 | 0.00 | 60 | 1014.5 |
| 20260505025429 | 66 | 239 | 2.0 | 5.0 | 0.00 | 0.00 | 0.00 | 60 | 1014.6 |
| 20260505024923 | 66 | 201 | 2.0 | 5.0 | 0.00 | 0.00 | 0.00 | 60 | 1014.5 |
| 20260505024417 | 66 | 211 | 2.0 | 7.0 | 0.00 | 0.00 | 0.00 | 60 | 1014.4 |
| 20260505024142 | 66 | 200 | 2.0 | 7.0 | 0.00 | 0.00 | 0.00 | 61 | 1014.4 |
| 20260505023405 | 66 | 220 | 2.0 | 5.0 | 0.00 | 0.00 | 0.00 | 61 | 1014.4 |
| 20260505022859 | 66 | 199 | 2.0 | 7.0 | 0.00 | 0.00 | 0.00 | 61 | 1014.4 |
| 20260505022352 | 66 | 177 | 2.0 | 7.0 | 0.00 | 0.00 | 0.00 | 61 | 1014.4 |
| 20260505021847 | 66 | 250 | 2.0 | 5.0 | 0.00 | 0.00 | 0.00 | 61 | 1014.4 |
| 20260505021341 | 66 | 204 | 2.0 | 8.0 | 0.00 | 0.00 | 0.00 | 61 | 1014.4 |
| 20260505020835 | 66 | 217 | 2.0 | 8.0 | 0.00 | 0.00 | 0.00 | 61 | 1014.5 |
| 20260505020329 | 66 | 205 | 1.0 | 4.0 | 0.00 | 0.00 | 0.00 | 61 | 1014.6 |
| 20260505020054 | 67 | 194 | 2.0 | 6.0 | 0.00 | 0.00 | 0.00 | 61 | 1014.5 |
| 20260505015547 | 67 | 213 | 2.0 | 6.0 | 0.00 | 0.00 | 0.00 | 61 | 1014.4 |
| 20260505014811 | 67 | 205 | 2.0 | 5.0 | 0.00 | 0.00 | 0.00 | 61 | 1014.4 |
| 20260505014304 | 67 | 175 | 3.0 | 6.0 | 0.00 | 0.00 | 0.00 | 61 | 1014.4 |
| 20260505013759 | 67 | 208 | 2.0 | 6.0 | 0.00 | 0.00 | 0.00 | 61 | 1014.3 |
| 20260505013253 | 67 | 201 | 2.0 | 5.0 | 0.00 | 0.00 | 0.00 | 60 | 1014.3 |
| 20260505012747 | 67 | 217 | 2.0 | 5.0 | 0.00 | 0.00 | 0.00 | 60 | 1014.3 |
| 20260505012241 | 67 | 227 | 2.0 | 5.0 | 0.00 | 0.00 | 0.00 | 60 | 1014.2 |
| 20260505011735 | 67 | 188 | 3.0 | 9.0 | 0.00 | 0.00 | 0.00 | 60 | 1014.1 |
| 20260505011229 | 68 | 207 | 2.0 | 9.0 | 0.00 | 0.00 | 0.00 | 59 | 1014.1 |
| 20260505010723 | 68 | 209 | 2.0 | 5.0 | 0.00 | 0.00 | 0.00 | 59 | 1013.9 |
| 20260505010217 | 68 | 202 | 3.0 | 10.0 | 0.00 | 0.00 | 0.00 | 59 | 1013.8 |
| 20260505005942 | 68 | 209 | 3.0 | 10.0 | 0.00 | 0.00 | 0.00 | 59 | 1013.7 |